TimeCST,TemperatureF,Dew PointF,Humidity,Sea Level PressureIn,VisibilityMPH,Wind Direction,Wind SpeedMPH,Gust SpeedMPH,PrecipitationIn,Events,Conditions,WindDirDegrees,DateUTC
12:35 AM,28.4,14.0,55,30.03,10.0,West,8.1,-,N/A,,Clear,260,2013-01-05 06:35:00
12:55 AM,28.4,14.0,55,30.03,10.0,West,6.9,-,N/A,,Clear,260,2013-01-05 06:55:00
1:15 AM,28.4,14.0,55,30.02,10.0,WNW,4.6,-,N/A,,Clear,290,2013-01-05 07:15:00
1:35 AM,26.6,14.0,59,30.03,10.0,West,6.9,-,N/A,,Clear,280,2013-01-05 07:35:00
1:55 AM,26.6,14.0,59,30.04,10.0,WNW,5.8,-,N/A,,Clear,290,2013-01-05 07:55:00
2:15 AM,26.6,14.0,59,30.04,10.0,WSW,8.1,-,N/A,,Clear,250,2013-01-05 08:15:00
2:35 AM,28.4,14.0,55,30.05,10.0,West,8.1,-,N/A,,Partly Cloudy,270,2013-01-05 08:35:00
2:55 AM,30.2,15.8,55,30.06,10.0,West,11.5,-,N/A,,Mostly Cloudy,280,2013-01-05 08:55:00
3:15 AM,32.0,17.6,55,30.07,10.0,West,11.5,17.3,N/A,,Overcast,260,2013-01-05 09:15:00
3:55 AM,33.8,17.6,52,30.06,10.0,West,17.3,21.9,N/A,,Mostly Cloudy,280,2013-01-05 09:55:00
4:15 AM,33.8,19.4,56,30.05,10.0,West,16.1,23.0,N/A,,Mostly Cloudy,270,2013-01-05 10:15:00
4:35 AM,33.8,19.4,56,30.05,10.0,West,15.0,24.2,N/A,,Overcast,280,2013-01-05 10:35:00
4:55 AM,33.8,19.4,56,30.05,10.0,West,16.1,26.5,N/A,,Mostly Cloudy,280,2013-01-05 10:55:00
5:15 AM,33.8,19.4,56,30.04,10.0,West,18.4,27.6,N/A,,Scattered Clouds,280,2013-01-05 11:15:00
5:55 AM,32.0,19.4,60,30.05,10.0,West,17.3,24.2,N/A,,Overcast,280,2013-01-05 11:55:00
6:15 AM,32.0,17.6,55,30.06,10.0,West,17.3,24.2,N/A,,Mostly Cloudy,280,2013-01-05 12:15:00
6:55 AM,32.0,17.6,55,30.06,10.0,West,19.6,26.5,N/A,,Clear,280,2013-01-05 12:55:00
7:15 AM,32.0,17.6,55,30.07,10.0,West,17.3,27.6,N/A,,Clear,280,2013-01-05 13:15:00
7:35 AM,32.0,17.6,55,30.08,10.0,WNW,16.1,29.9,N/A,,Clear,290,2013-01-05 13:35:00
7:55 AM,32.0,17.6,55,30.09,10.0,WNW,17.3,27.6,N/A,,Clear,300,2013-01-05 13:55:00
8:15 AM,30.2,17.6,60,30.09,10.0,WNW,20.7,28.8,N/A,,Clear,290,2013-01-05 14:15:00
8:55 AM,30.2,19.4,64,30.12,10.0,WNW,18.4,21.9,N/A,,Clear,290,2013-01-05 14:55:00
9:15 AM,32.0,19.4,60,30.13,10.0,WNW,18.4,27.6,N/A,,Clear,300,2013-01-05 15:15:00
9:35 AM,32.0,19.4,60,30.13,10.0,West,19.6,27.6,N/A,,Mostly Cloudy,280,2013-01-05 15:35:00
9:55 AM,32.0,19.4,60,30.15,10.0,WNW,18.4,-,N/A,,Scattered Clouds,300,2013-01-05 15:55:00
10:15 AM,30.2,19.4,64,30.16,10.0,WNW,19.6,29.9,N/A,,Clear,290,2013-01-05 16:15:00
10:35 AM,30.2,17.6,60,30.16,10.0,WNW,21.9,26.5,N/A,,Clear,290,2013-01-05 16:35:00
10:55 AM,32.0,17.6,55,30.15,10.0,West,21.9,27.6,N/A,,Clear,280,2013-01-05 16:55:00
11:15 AM,32.0,15.8,51,30.16,10.0,WNW,19.6,31.1,N/A,,Clear,290,2013-01-05 17:15:00
11:55 AM,32.0,15.8,51,30.15,10.0,WNW,17.3,26.5,N/A,,Clear,290,2013-01-05 17:55:00
12:15 PM,32.0,15.8,51,30.14,10.0,West,20.7,24.2,N/A,,Clear,280,2013-01-05 18:15:00
12:35 PM,32.0,15.8,51,30.14,10.0,West,21.9,29.9,N/A,,Clear,280,2013-01-05 18:35:00
12:55 PM,32.0,15.8,51,30.14,10.0,WNW,15.0,25.3,N/A,,Clear,290,2013-01-05 18:55:00
1:15 PM,32.0,15.8,51,30.13,10.0,WNW,17.3,27.6,N/A,,Clear,290,2013-01-05 19:15:00
1:35 PM,33.8,15.8,48,30.13,10.0,WNW,16.1,24.2,N/A,,Clear,290,2013-01-05 19:35:00
1:55 PM,33.8,15.8,48,30.12,10.0,WNW,16.1,23.0,N/A,,Clear,290,2013-01-05 19:55:00
2:15 PM,35.6,15.8,44,30.12,10.0,WNW,15.0,23.0,N/A,,Clear,290,2013-01-05 20:15:00
2:35 PM,35.6,15.8,44,30.12,10.0,WNW,18.4,21.9,N/A,,Clear,290,2013-01-05 20:35:00
2:55 PM,35.6,17.6,48,30.14,10.0,WNW,16.1,21.9,N/A,,Clear,290,2013-01-05 20:55:00
3:15 PM,35.6,15.8,44,30.14,10.0,WNW,13.8,21.9,N/A,,Clear,290,2013-01-05 21:15:00
3:35 PM,35.6,15.8,44,30.15,10.0,WNW,12.7,17.3,N/A,,Clear,290,2013-01-05 21:35:00
3:55 PM,35.6,15.8,44,30.15,10.0,West,13.8,20.7,N/A,,Clear,280,2013-01-05 21:55:00
4:15 PM,35.6,15.8,44,30.15,10.0,WNW,16.1,20.7,N/A,,Clear,290,2013-01-05 22:15:00
4:35 PM,33.8,15.8,48,30.16,10.0,WNW,13.8,19.6,N/A,,Clear,290,2013-01-05 22:35:00
4:55 PM,32.0,15.8,51,30.16,10.0,West,13.8,18.4,N/A,,Clear,280,2013-01-05 22:55:00
5:15 PM,32.0,15.8,51,30.17,10.0,WNW,12.7,-,N/A,,Clear,290,2013-01-05 23:15:00
5:35 PM,32.0,15.8,51,30.17,10.0,West,13.8,-,N/A,,Clear,280,2013-01-05 23:35:00
5:55 PM,32.0,15.8,51,30.18,10.0,West,15.0,-,N/A,,Clear,280,2013-01-05 23:55:00
6:15 PM,32.0,15.8,51,30.18,10.0,West,15.0,-,N/A,,Clear,280,2013-01-06 00:15:00
6:35 PM,32.0,15.8,51,30.18,10.0,West,13.8,-,N/A,,Clear,270,2013-01-06 00:35:00
6:55 PM,32.0,15.8,51,30.19,10.0,West,12.7,16.1,N/A,,Clear,260,2013-01-06 00:55:00
7:15 PM,32.0,15.8,51,30.19,10.0,West,12.7,-,N/A,,Clear,280,2013-01-06 01:15:00
7:35 PM,32.0,15.8,51,30.19,10.0,West,11.5,-,N/A,,Clear,270,2013-01-06 01:35:00
7:55 PM,32.0,15.8,51,30.19,10.0,West,11.5,17.3,N/A,,Clear,270,2013-01-06 01:55:00
8:35 PM,28.4,15.8,59,30.18,10.0,WSW,9.2,-,N/A,,Clear,250,2013-01-06 02:35:00
8:55 PM,28.4,15.8,59,30.18,10.0,WSW,9.2,-,N/A,,Clear,250,2013-01-06 02:55:00
9:15 PM,30.2,15.8,55,30.17,10.0,West,13.8,-,N/A,,Clear,260,2013-01-06 03:15:00
9:35 PM,30.2,15.8,55,30.16,10.0,West,12.7,-,N/A,,Clear,280,2013-01-06 03:35:00
9:55 PM,28.4,15.8,59,30.16,10.0,West,12.7,17.3,N/A,,Clear,260,2013-01-06 03:55:00
10:15 PM,28.4,15.8,59,30.16,10.0,West,10.4,-,N/A,,Clear,270,2013-01-06 04:15:00
10:35 PM,30.2,15.8,55,30.16,10.0,WSW,12.7,18.4,N/A,,Clear,250,2013-01-06 04:35:00
10:55 PM,30.2,15.8,55,30.16,10.0,West,11.5,-,N/A,,Clear,270,2013-01-06 04:55:00
11:15 PM,28.4,15.8,59,30.16,10.0,West,12.7,-,N/A,,Clear,280,2013-01-06 05:15:00
11:35 PM,28.4,15.8,59,30.16,10.0,West,9.2,-,N/A,,Clear,280,2013-01-06 05:35:00
11:55 PM,28.4,15.8,59,30.15,10.0,West,9.2,-,N/A,,Clear,280,2013-01-06 05:55:00